Regional Weather Roundup
Issued by NWS

Home | Current Version | Previous Version | Graphics & Text | Print | Product List | Glossary On
Versions: 1 2 3 4 5 6 7 8 9 10 11 12 13 14 15 16 17 18 19 20 21 22 23 24 25 26 27 28 29 30 31 32 33 34 35 36 37 38 39 40 41 42 43 44 45 46 47 48 49 50
000
ASUS43 KMKX 081910
RWRWI

WISCONSIN REGIONAL WEATHER ROUNDUP
NATIONAL WEATHER SERVICE MILWAUKEE/SULLIVAN WI
100 PM CST MON FEB 08 2016

NOTE: "FAIR" INDICATES FEW OR NO CLOUDS BELOW 12,000 FEET WITH NO
SIGNIFICANT WEATHER AND/OR OBSTRUCTIONS TO VISIBILITY.

WIZ001-002-006>008-014>016-023>028-082000-
NORTHWEST WISCONSIN

CITY           SKY/WX    TMP DP  RH WIND       PRES   REMARKS
SUPERIOR ARPT  LGT SNOW  14   5  67 NW13      29.91F WCI  -1
ASHLAND        LGT SNOW  17  10  74 NW9       29.84S WCI   6
HAYWARD        LGT SNOW  14   6  70 NW8       29.83S WCI   3
SIREN          CLOUDY    14   4  64 NW16      29.89F WCI  -2
CUMBERLAND     LGT SNOW  12   5  73 NW16      29.84S WCI  -4
RICE LAKE      FLURRIES  14   5  67 NW12G17   29.86F WCI   0
CHETEK         FLURRIES  13   5  71 NW5       29.85S WCI   5
LADYSMITH      LGT SNOW  16   9  74 NW14      29.81S WCI   1
EAU CLAIRE     CLOUDY    15   5  64 NW14      29.84F WCI   0
MENOMONIE      LGT SNOW  16   6  64 W15G21    29.87S WCI   1
NEW RICHMOND   CLOUDY    15   3  61 N22       29.89F WCI  -4
OSCEOLA        CLOUDY    15   5  63 NW15G22   29.94F WCI   0
$$

WIZ003>005-009-010-017-018-082000-
NORTH CENTRAL WISCONSIN

CITY           SKY/WX    TMP DP  RH WIND       PRES   REMARKS
MANITOWISH WTR LGT SNOW  17  12  82 NW12      29.71S WCI   4
ARBOR VITAE    LGT SNOW  20  13  76 NW14      29.69F WCI   6
WOODRUFF       LGT SNOW  20  13  76 NW14      29.69F WCI   6
RHINELANDER    CLOUDY    22  14  71 NW12G17   29.67S WCI  10
EAGLE RIVER    FLURRIES  21  13  71 NW14      29.67S WCI   8
LAND O LAKES   LGT SNOW  19  13  76 NW10G18   29.68S WCI   8
PHILLIPS       LGT SNOW  17  12  81 NW9       29.73S WCI   5
TOMAHAWK       CLOUDY    22  14  69 N12G17    29.70S WCI  11
MEDFORD        CLOUDY    19  13  78 NW15      29.71S WCI   5
MERRILL        CLOUDY    23  15  71 N14       29.70S WCI  11
$$

WIZ029-030-035-036-043>047-082000-
CENTRAL WISCONSIN

CITY           SKY/WX    TMP DP  RH WIND       PRES   REMARKS
WAUSAU         CLOUDY    24  16  71 N16       29.68R WCI  11
MOSINEE        CLOUDY    23  19  86 NW20      29.69S WCI   8
MARSHFIELD     CLOUDY    19  11  70 NW20      29.71S WCI   3
STEVENS POINT  CLOUDY    25  16  70 W12G17    29.68S WCI  14
WAUPACA        CLOUDY    32  22  66 NW14      29.67R WCI  22
WAUTOMA        CLOUDY    25  17  71 NW13      29.70R WCI  14
WISC RAPIDS    CLOUDY    21  12  68 N15G23    29.73R WCI   8
CAMP DOUGLAS   CLOUDY    19  16  86 NW18      29.75S WCI   4
$$

WIZ011>013-019>022-031-037>040-048>050-082000-
NORTHEAST WISCONSIN

CITY           SKY/WX    TMP DP  RH WIND       PRES   REMARKS
ANTIGO         CLOUDY    23  16  75 N17       29.65S WCI   9
SHAWANO        CLOUDY    32  21  65 NW13      29.65S WCI  22
OCONTO         CLOUDY    28  28 100 NW9       29.64S WCI  20
STURGEON BAY   CLOUDY    30  25  80 N17G23    29.64S WCI  18
GREEN BAY      LGT SNOW  31  28  89 N9        29.63S VSB 3/4 WCI  23
MANITOWOC      FLURRIES  31  26  82 W9        29.62F WCI  23
APPLETON       FLURRIES  28  21  74 W12       29.62S WCI  18
CLINTONVILLE   CLOUDY    30  21  69 NW10      29.65S WCI  21
OSHKOSH        FLURRIES  27  20  75 W14       29.64F WCI  16
$$

WIZ032>034-041-042-053>061-082000-
SOUTHWEST WISCONSIN

CITY           SKY/WX    TMP DP  RH WIND       PRES   REMARKS
LA CROSSE      CLOUDY    19   9  65 NW18      29.84R WCI   4
SPARTA         CLOUDY    20  12  70 NW17      29.80S WCI   5
VIROQUA        CLOUDY    18  11  73 NW20      29.75S WCI   2
BOSCOBEL       CLOUDY    22  11  62 NW14G20   29.79S WCI   9
PRAIRIE DU CHI CLOUDY    22  10  61 NW16G22   29.81S WCI   8
PLATTEVILLE    CLOUDY    21  15  76 NW16      29.75S WCI   7
$$

WIZ056-057-062-063-064-067-068-082000-
SOUTH CENTRAL WISCONSIN

CITY           SKY/WX    TMP DP  RH WIND       PRES   REMARKS
REEDSBURG      CLOUDY    20  14  76 NW12G21   29.73S WCI   8
BARABOO/DELLS  CLOUDY    21  13  71 N14       29.72R WCI   8
LONE ROCK      CLOUDY    22  12  65 NW12      29.76S WCI  10
MINERAL POINT  CLOUDY    23  14  68 NW16      29.72S WCI  10
MADISON        CLOUDY    23  16  74 NW13      29.69F WCI  11
MIDDLETON      CLOUDY    25  17  73 NW13      29.70F WCI  13
WATERTOWN      CLOUDY    25  21  85 NW9       29.67F WCI  15
MONROE         CLOUDY    25  18  74 NW10G16   29.69S WCI  15
JANESVILLE     CLOUDY    27  18  69 NW13      29.69S WCI  16
$$

WIZ051-052-058>065-066-070>072-082000-
SOUTHEAST WISCONSIN

CITY           SKY/WX    TMP DP  RH WIND       PRES   REMARKS
MILWAUKEE      CLOUDY    27  20  75 NW13      29.64S WCI  16
WAUKESHA       CLOUDY    21  18  86 W17       29.66S WCI   7
MILWAUKEE/TIMM FLURRIES  27  18  69 W14       29.65F WCI  15
RACINE         CLOUDY    27  21  78 NW13      29.65F WCI  16
BURLINGTON     CLOUDY    24  18  78 NW13G18   29.67S WCI  13
KENOSHA        CLOUDY    28  21  75 W14       29.64F WCI  17
FOND DU LAC    SNOW      26  21  81 NW9       29.66S VSB 1/2 WCI  17
SHEBOYGAN      LGT SNOW  27  21  78 NW15      29.62F WCI  15
WEST BEND      CLOUDY    27  19  74 W9G17     29.64S WCI  17
JUNEAU         CLOUDY    24  18  77 NW8       29.67F WCI  15
$$

LSZ147-162-082000-
LAKE SUPERIOR

STATION/POSITION TIME  TEMP    WIND        PRES    WAVE
                       AIR SEA DIR/SP/G            HT/PER
                 (UTC) (F)     (DEG/KT/KT) (MB)    (FT/S)
DEVILS ISLAND    1900   14     320/ 18/ 20 1011.8F
PORT WING        1800   16     320/ 15/ 20 1011.9S
SAXON HARBOR     1800   19                 1009.8S
$$

LMZ867-665-643>646-082000-
LAKE MICHIGAN

STATION/POSITION TIME  TEMP    WIND        PRES    WAVE
                       AIR SEA DIR/SP/G            HT/PER
                 (UTC) (F)     (DEG/KT/KT) (MB)    (FT/S)
CHAMBERS ISLAND  1800   31     340/ 14/ 17 1003.7F
NORTHPORT PIER   1800   30     340/ 14/ 20 1003.7S
ALGOMA LAKESHORE 1711          340/  8/  9   N/A
KEWAUNEE LAKESHO 1800   33     300/  8/ 11 1002.2F
SHEBOYGAN LAKESH 1900   26     280/ 14/ 17 1004.0F
PORT WASHINGTON  1800   27     300/ 11/ 18 1004.7S
MILWAUKEE LAKESH 1810   27     300/ 13/ 16   N/A
KENOSHA   LAKESH 1900   28     280/ 13/ 15 1004.1F
$$

TC  - TEMPERATURE IN CELSIUS
VSB - VISIBILITY IN STATUTE MILES
WCI - WIND CHILL INDEX
HX  - HEAT INDEX




USA.gov is the U.S. government's official web portal to all federal, state and local government web resources and services.